Home   Weather   Newark   Past weeks

Flag for USA Past Weather in Newark, New Jersey, USA — Yesterday and Last 2 Weeks

Now
40 °F

Light rain. Mostly cloudy.


Feels Like: 28 °F
Forecast: 36 / 38 °F
Wind: 31 mph from Northeast

Location: Newark International Airport

Current Time: Jan 23, 2017 at 4:30:19 pm

Latest Report: Jan 23, 2017 at 3:51 pm


Visibility: 6 mi

Pressure: 29.67 "Hg

Humidity: 73%

Dew Point: 32 °F

Location of NewarkLocation

Past Weather in Newark — Graph

°F

Newark Temperature Yesterday

Maximum temperature yesterday: 50 °F (at 1:17 pm)
Minimum temperature yesterday: 44 °F (at 12:51 am)
Average temperature yesterday: 47 °F

High & Low Weather Summary for the Past Weeks

 TemperatureHumidityPressure
High67 °F (Jan 12, 1:51 pm)100% (Jan 18, 3:51 am)30.77 "Hg (Jan 18, 3:51 am)
Low12 °F (Jan 9, 3:51 am)30% (Jan 13, 4:51 pm)29.67 "Hg (Jan 23, 2:51 pm)
Average39 °F73%30.18 "Hg
* Reported Jan 8 2:51 pm — Jan 23 2:51 pm, Newark, Weather by CustomWeather, © 2017

Note: Actual official high and low records may vary slightly from our data, if they occured in-between our weather recording intervals... More about our weather records

Advertising

Newark Weather History for the Previous 24 Hours

Scroll right to see more
 ConditionsComfort  
Time TempWeatherWind HumidityBarometerVisibility
2:51 pm
Mon, Jan 23
41 °FOvercast.26 mph67%29.67 "Hg10 mi
1:51 pm41 °FLight rain. Mostly cloudy.21 mph67%29.70 "Hg10 mi
12:51 pm41 °FOvercast.24 mph67%29.72 "Hg10 mi
11:51 am41 °FMostly cloudy.30 mph67%29.78 "Hg10 mi
10:51 am41 °FOvercast.28 mph65%29.83 "Hg10 mi
9:51 am41 °FOvercast.26 mph67%29.83 "Hg10 mi
8:51 am42 °FCloudy.28 mph68%29.82 "Hg10 mi
7:51 am42 °FMostly cloudy.23 mph73%29.84 "Hg10 mi
6:51 am42 °FMostly cloudy.16 mph76%29.82 "Hg10 mi
6:04 am43 °FMostly cloudy.25 mph74%29.80 "Hg10 mi
5:51 am43 °FMostly cloudy.17 mph76%29.82 "Hg10 mi
4:51 am43 °FMostly cloudy.17 mph82%29.82 "Hg10 mi
3:51 am43 °FOvercast.17 mph86%29.81 "Hg10 mi
2:51 am44 °FMostly cloudy.21 mph82%29.81 "Hg10 mi
1:51 am44 °FMostly cloudy.17 mph82%29.82 "Hg10 mi
12:51 am45 °FMostly cloudy.20 mph80%29.81 "Hg10 mi
12:21 am45 °FMostly cloudy.18 mph82%29.81 "Hg10 mi
11:51 pm
Sun, Jan 22
46 °FMostly cloudy.21 mph79%29.81 "Hg10 mi
10:51 pm47 °FMostly cloudy.17 mph80%29.80 "Hg10 mi
9:51 pm49 °FMostly cloudy.17 mph74%29.78 "Hg10 mi
8:51 pm50 °FMostly cloudy.8 mph77%29.76 "Hg10 mi
7:51 pm49 °FOvercast.6 mph86%29.74 "Hg9 mi
6:51 pm49 °FOvercast.8 mph86%29.74 "Hg8 mi
5:51 pm48 °FFog.12 mph93%29.72 "Hg6 mi
5:35 pm48 °FFog.10 mph93%29.73 "Hg6 mi
5:07 pm48 °FLight rain. Fog.9 mph93%29.73 "Hg2 mi
4:51 pm48 °FLight rain. Fog.10 mph89%29.72 "Hg3 mi
Weather by CustomWeather, © 2017

See weather overviewHow to use our weather pages